Home   Weather   Fairfield   Past weeks
Flag for USA

Past Weather in Fairfield, New Jersey, USA — Yesterday and Last 2 Weeks

Now
74 °F

Light rain. Overcast.


Feels Like: 75 °F
Forecast: 86 / 72 °F
Wind: 3 mph from West

Location: New York City - Central Park

Current Time: Jul 13, 2020 at 2:33:24 am

Latest Report: Jul 13, 2020 at 1:51 am


Visibility: 10 mi

Pressure: 29.78 "Hg

Humidity: 74%

Dew Point: 65 °F

Location of FairfieldLocation

Past Weather in Fairfield — Graph

°F

Fairfield Temperature Yesterday

Maximum temperature yesterday: 86 °F (at 2:51 pm)
Minimum temperature yesterday: 72 °F (at 5:51 am)
Average temperature yesterday: 78 °F

High & Low Weather Summary for the Past Weeks

 TemperatureHumidityPressure
High95 °F (Jul 6, 1:51 pm)97% (Jun 29, 7:51 pm)30.14 "Hg (Jun 29, 7:51 pm)
Low66 °F (Jun 29, 6:51 pm)26% (Jul 5, 4:51 pm)29.61 "Hg (Jul 10, 8:51 pm)
Average77 °F74%29.87 "Hg
* Reported Jun 28 12:51 am — Jul 13 12:51 am, Fairfield. Weather by CustomWeather, © 2020

Note: Actual official high and low records may vary slightly from our data, if they occured in-between our weather recording intervals... More about our weather records

Fairfield Weather History for the Previous 24 Hours

Scroll right to see more
 ConditionsComfort  
Time TempWeatherWind HumidityBarometerVisibility
12:51 am
Mon, Jul 13
75 °FPassing clouds.5 mph69%29.79 "Hg10 mi
11:51 pm
Sun, Jul 12
76 °FClear.6 mph69%29.78 "Hg10 mi
10:51 pm74 °FOvercast.3 mph79%29.78 "Hg10 mi
9:51 pm73 °FLight rain. Fog.No wind88%29.76 "Hg4 mi
8:51 pm83 °FPassing clouds.5 mph48%29.73 "Hg10 mi
7:51 pm84 °FSunny.7 mph45%29.72 "Hg10 mi
6:51 pm86 °FSunny.5 mph42%29.70 "Hg10 mi
5:51 pm86 °FSunny.3 mph40%29.69 "Hg10 mi
4:51 pm85 °FSunny.3 mph46%29.70 "Hg10 mi
3:51 pm86 °FSunny.No wind48%29.70 "Hg10 mi
2:51 pm86 °FScattered clouds.3 mph48%29.71 "Hg10 mi
1:51 pm83 °FScattered clouds.6 mph57%29.72 "Hg10 mi
12:51 pm83 °FPartly sunny.5 mph57%29.73 "Hg10 mi
11:51 am81 °FScattered clouds.6 mph56%29.73 "Hg10 mi
10:51 am80 °FScattered clouds.5 mph60%29.73 "Hg10 mi
9:51 am78 °FSunny.6 mph62%29.73 "Hg10 mi
8:51 am75 °FSunny.3 mph69%29.72 "Hg10 mi
7:51 am73 °FSunny.5 mph74%29.72 "Hg10 mi
6:51 am72 °FSunny.N/A78%29.70 "Hg10 mi
5:51 am72 °FSunny.8 mph76%29.69 "Hg10 mi
4:51 am73 °FClear.6 mph76%29.67 "Hg10 mi
3:51 am73 °FClear.6 mph79%29.67 "Hg10 mi
2:51 am73 °FClear.6 mph79%29.67 "Hg10 mi
Weather by CustomWeather, © 2020

See weather overview